[[{"header":{"parameterUnit":"m.s-1","parameterCategory":1,"la1":30.2991,"la2":30.254,"lo1":-89.0895,"lo2":-89.0444,"dy":0.0017,"dx":0.0017,"nx":28,"ny":28,"refTime":"2024-08-01T09:00:00:Z","depth":0,"parameterNumber":2,"parameterNumberName":"U-component_of_WINDS"},"data":[0,0,0,0,0,0,0,0,0,0,0,0,0,0,0,0,0,0,0,0,0,0,0,0,0,0,0,0,0,0,0,0,0,0,0,0,0,0,0,0,0,0,0,0,0,0,0,0,0,0,0,0,0,0,0,0,0,0,1.929,1.9291,0,1.9413,1.9415,1.9416,1.9431,1.943,1.9429,1.9427,1.9554,1.9559,1.9563,0,0,0,0,0,0,0,0,0,0,0,0,0,1.9067,1.9071,1.929,1.9292,1.9293,1.9413,1.9415,1.9417,1.9431,1.943,1.9428,1.9427,1.9553,1.9558,1.9563,0,0,0,0,0,0,0,0,0,0,0,0,0,1.9175,1.9073,1.929,1.9315,1.9318,1.9413,1.9415,1.9417,1.9431,1.943,1.9428,1.9426,1.9551,1.9558,1.9564,1.9643,0,0,1.9585,1.9588,0,0,0,0,0,0,0,0,1.9169,1.9183,1.931,1.9313,1.9317,1.9405,1.9383,1.9493,1.9432,1.9389,1.9427,1.9425,1.9506,1.9516,1.9544,1.9648,1.9654,1.9585,1.959,1.9593,1.9594,0,0,0,0,0,0,0,1.9161,1.9178,1.9339,1.9311,1.9316,1.932,1.9333,1.9404,1.9456,1.9392,1.9393,1.9408,1.9508,1.9537,1.9547,1.9656,1.9585,1.9591,1.9595,1.9598,1.9831,1.9833,0,0,0,0,0,0,1.9149,1.9171,1.9335,1.9343,1.9237,1.9326,1.934,1.9379,1.9455,1.9465,1.9409,1.9408,1.9526,1.9539,1.9551,1.9647,1.9592,1.9599,1.9603,1.9829,1.9831,1.9834,0,0,0,0,0,0,1.9144,1.9163,1.933,1.9257,1.9279,1.9331,1.9374,1.9382,1.9411,1.9468,1.9478,1.9429,1.9525,1.9542,1.962,1.9652,1.9602,1.9608,1.9826,1.983,1.9832,1.984,0,0,0,0,0,0,1.9138,1.9162,1.9192,1.9258,1.9283,1.9396,1.9376,1.9386,1.9423,1.9422,1.949,1.9499,1.9525,1.9609,1.9626,1.966,1.9613,1.9824,1.9828,1.9831,1.9838,1.9844,1.9849,0,0,0,0,0,1.913,1.9189,1.9193,1.9213,1.9321,1.9398,1.9412,1.9441,1.9425,1.9456,1.9493,1.9497,1.9646,1.9617,1.9636,1.9673,1.9822,1.9826,1.9831,1.9835,1.9842,1.9849,0,0,0,0,0,0,1.9125,1.9198,1.9203,1.9286,1.9336,1.94,1.944,1.9448,1.9503,1.95,1.9534,1.9549,1.9625,1.9657,1.9624,1.9753,1.9732,1.9741,1.9729,1.9736,1.9742,1.9732,1.9619,0,0,0,0,0,1.9134,1.919,1.9251,1.9318,1.9343,1.9387,1.9421,1.9439,1.9492,1.9513,1.9555,1.9606,1.9665,1.9702,1.9759,1.9843,1.9857,1.9877,1.9883,1.9887,1.9894,1.994,1.9949,1.9849,1.9849,1.9849,0,0,1.9152,1.9199,1.9232,1.9318,1.9359,1.9416,1.9404,1.9465,1.9508,1.9522,1.9598,1.9631,1.9691,1.9771,1.9809,1.98,1.9925,1.9893,1.9896,1.9901,1.9946,1.9955,1.9964,1.9852,1.9852,1.9851,0,0,1.9215,1.9256,1.9316,1.9357,1.9419,1.9448,1.9462,1.9526,1.9549,1.9625,1.9637,1.9689,1.9788,1.983,1.9864,1.9943,1.9949,1.9961,1.999,2.0034,2.0042,2.0049,2.0076,2.0086,1.9968,1.9968,1.9968,0,1.923,1.9316,1.9346,1.9407,1.9444,1.946,1.9521,1.956,1.9636,1.9662,1.9651,1.9777,1.9818,1.9908,1.9927,1.9955,1.9972,1.9953,2.0038,2.0046,2.0053,2.0079,2.009,1.9969,1.9969,1.9969,1.9969,0,1.9331,1.9391,1.9433,1.9506,1.9548,1.9609,1.9648,1.9687,1.9702,1.9732,1.981,1.986,1.9927,1.995,1.9965,2.0043,2.0036,2.0031,2.0011,2.0063,2.0088,2.0099,1.997,1.997,1.997,1.9969,0,0,1.9393,1.9483,1.9498,1.9531,1.9601,1.9648,1.9709,1.9775,1.9807,1.986,1.9912,1.9997,1.9993,2.0032,2.0052,2.0091,2.0149,2.0082,2.0084,2.0092,2.0237,2.0239,2.0251,2.0154,2.0156,2.0158,2.0232,0,1.9462,1.9572,1.9601,1.9695,1.975,1.9766,1.982,1.9868,1.9899,1.995,1.9984,2.0043,2.0034,2.0057,2.0097,2.0134,2.0179,2.0129,2.0202,2.0205,2.0186,2.0264,2.0266,2.0334,2.0242,2.0244,2.0245,0,1.9558,1.9613,1.9711,1.9774,1.9798,1.9846,1.9908,1.9957,2.0013,2.0032,2.0076,2.0092,2.0157,2.0134,2.0223,2.0189,2.0221,2.0243,2.0247,2.0254,2.0227,2.0272,2.0356,2.0366,2.0261,2.026,2.0259,0,1.9592,1.969,1.9762,1.9791,1.9865,1.9898,1.9931,1.9985,2.0022,2.0077,2.0102,2.0163,2.0197,2.0244,2.0277,2.0257,2.0363,2.0343,2.038,2.038,2.0401,2.0399,2.049,2.0423,2.0423,2.0423,2.0423,0,1.9665,1.9725,1.9778,1.9822,1.9889,1.9923,1.9988,2.0022,2.0069,2.012,2.0138,2.0185,2.0226,2.0279,2.0305,2.0374,2.039,2.0407,2.0413,2.0404,2.0402,2.0425,2.042,2.0426,2.0425,2.0425,2.0424,0,1.9714,1.9752,1.9831,1.9896,1.9913,1.996,2.0015,2.0059,2.009,2.0154,2.0171,2.022,2.0283,2.032,2.04,2.0417,2.0494,2.0499,2.0475,2.0477,2.0512,2.0508,2.062,2.0637,2.056,2.056,2.0561,0,1.9758,1.9804,1.9874,1.9909,1.9942,1.9999,2.0037,2.0072,2.0112,2.0179,2.0214,2.0278,2.0331,2.0431,2.0473,2.0534,2.054,2.0575,2.0549,2.0539,2.0539,2.0535,2.054,2.0579,2.058,2.058,2.0581,0,1.9831,1.9848,1.9903,1.9965,2.001,2.006,2.011,2.0138,2.0182,2.0225,2.029,2.0331,2.0412,2.0476,2.054,2.0574,2.0585,2.0589,2.06,2.0592,2.0576,2.0584,2.0486,2.0586,2.0585,2.0585,2.0585,2.0584,1.9878,1.992,1.9975,2.0036,2.0077,2.0124,2.0168,2.0205,2.0259,2.0328,2.0346,2.0413,2.0468,2.0556,2.0591,2.0645,2.0639,2.0656,2.066,2.0663,2.0664,2.0568,2.0657,2.0657,2.0657,2.0656,2.0656,0,1.9951,1.9988,2.0044,2.0113,2.0161,2.0168,2.0223,2.0263,2.0322,2.0372,2.0424,2.0498,2.056,2.0608,2.0671,2.0705,2.0711,2.072,2.0717,2.0725,2.0666,2.0649,2.0714,2.0714,2.0714,2.0714,2.0713,2.0713,1.9995,2.0065,2.0089,2.0181,2.0217,2.0284,2.0315,2.0358,2.0398,2.048,2.0532,2.0563,2.0612,2.0679,2.0736,2.0748,2.077,2.0778,2.0791,2.0735,2.0729,2.0723,2.0707,2.0783,2.0783,2.0845,2.0846,2.0846]},{"header":{"parameterUnit":"m.s-1","parameterCategory":1,"la1":30.2991,"la2":30.254,"lo1":-89.0895,"lo2":-89.0444,"dy":0.0017,"dx":0.0017,"nx":28,"ny":28,"refTime":"2024-08-01T09:00:00:Z","depth":0,"parameterNumber":3,"parameterNumberName":"V-component_of_WINDS"},"data":[0,0,0,0,0,0,0,0,0,0,0,0,0,0,0,0,0,0,0,0,0,0,0,0,0,0,0,0,0,0,0,0,0,0,0,0,0,0,0,0,0,0,0,0,0,0,0,0,0,0,0,0,0,0,0,0,0,0,5.6606,5.6607,0,5.6681,5.6682,5.6682,5.6637,5.6635,5.6633,5.6631,5.6699,5.6703,5.6707,0,0,0,0,0,0,0,0,0,0,0,0,0,5.6414,5.6418,5.6606,5.6607,5.6608,5.6681,5.6682,5.6683,5.6638,5.6635,5.6633,5.663,5.6698,5.6703,5.6707,0,0,0,0,0,0,0,0,0,0,0,0,0,5.6494,5.6419,5.6606,5.6594,5.6594,5.6681,5.6682,5.6683,5.6638,5.6635,5.6632,5.6629,5.6697,5.6702,5.6708,5.6807,0,0,5.6725,5.6728,0,0,0,0,0,0,0,0,5.649,5.6501,5.6595,5.6595,5.6595,5.6647,5.6639,5.6724,5.6639,5.6621,5.6631,5.6627,5.6684,5.669,5.6711,5.681,5.6813,5.6726,5.6729,5.6732,5.6733,0,0,0,0,0,0,0,5.6484,5.6498,5.6635,5.6596,5.6596,5.6582,5.659,5.6655,5.6669,5.6623,5.662,5.6629,5.6683,5.6706,5.6713,5.6814,5.6726,5.6731,5.6734,5.6736,5.6997,5.7001,0,0,0,0,0,0,5.6481,5.6493,5.6633,5.6637,5.6534,5.6588,5.6597,5.6633,5.6669,5.6671,5.6632,5.6627,5.6698,5.6706,5.6715,5.6833,5.6732,5.6737,5.674,5.6994,5.6998,5.7002,0,0,0,0,0,0,5.6477,5.6494,5.663,5.6565,5.6581,5.6595,5.6636,5.6636,5.6659,5.6676,5.6677,5.6653,5.6696,5.6707,5.6785,5.6835,5.674,5.6745,5.699,5.6995,5.7,5.7071,0,0,0,0,0,0,5.6472,5.6493,5.6533,5.6566,5.6585,5.6702,5.6639,5.664,5.667,5.6664,5.6696,5.6698,5.6694,5.6777,5.6791,5.6841,5.6749,5.6985,5.6992,5.6998,5.7064,5.7078,5.709,0,0,0,0,0,5.6465,5.6548,5.6535,5.6552,5.6636,5.6705,5.6715,5.6711,5.6674,5.6713,5.6724,5.6697,5.6827,5.6785,5.68,5.6853,5.6982,5.699,5.6998,5.7059,5.7075,5.709,0,0,0,0,0,0,5.6517,5.6552,5.6538,5.6635,5.6668,5.6697,5.6746,5.6729,5.677,5.6762,5.6752,5.676,5.6842,5.6855,5.6807,5.6951,5.6898,5.691,5.694,5.6956,5.6968,5.6963,5.6754,0,0,0,0,0,5.654,5.6596,5.6623,5.6705,5.6723,5.6732,5.6762,5.6756,5.6788,5.68,5.6817,5.6847,5.6894,5.6925,5.697,5.7066,5.7071,5.7109,5.7122,5.7133,5.7143,5.7194,5.7211,5.7028,5.7028,5.7028,0,0,5.6587,5.6614,5.6649,5.6716,5.6741,5.6797,5.6744,5.6805,5.6845,5.6809,5.6885,5.6897,5.693,5.7017,5.7057,5.7031,5.7194,5.7143,5.7151,5.7155,5.7204,5.7221,5.7236,5.7033,5.7032,5.7031,0,0,5.6703,5.6729,5.6801,5.6827,5.6866,5.6872,5.6889,5.6921,5.693,5.7006,5.698,5.7026,5.7108,5.7133,5.7155,5.728,5.7257,5.7294,5.7361,5.7411,5.7426,5.7438,5.7483,5.7499,5.7304,5.7304,5.7304,0,5.6756,5.6843,5.6839,5.6903,5.6933,5.6905,5.6977,5.7001,5.7051,5.7071,5.7042,5.7145,5.7164,5.7257,5.7288,5.7307,5.7325,5.7291,5.7424,5.7437,5.7449,5.7491,5.7507,5.7309,5.7308,5.7308,5.7307,0,5.6906,5.6966,5.7019,5.7072,5.7107,5.7174,5.7178,5.7214,5.7204,5.7212,5.7289,5.7312,5.7361,5.7382,5.7372,5.7473,5.7456,5.7426,5.7373,5.7471,5.751,5.7526,5.7315,5.7313,5.7312,5.7311,0,0,5.7056,5.7108,5.7127,5.7151,5.7192,5.7236,5.7301,5.7351,5.7382,5.7416,5.747,5.754,5.7512,5.7539,5.7531,5.7575,5.7672,5.7539,5.754,5.7563,5.7784,5.7807,5.7825,5.7656,5.7659,5.7662,5.7781,0,5.7175,5.7292,5.7291,5.7398,5.7452,5.7427,5.7483,5.7512,5.7521,5.7566,5.7573,5.7624,5.7584,5.7599,5.7642,5.7651,5.7716,5.7642,5.7704,5.7706,5.7697,5.7846,5.787,5.7982,5.7796,5.7799,5.7801,0,5.7329,5.7373,5.7486,5.752,5.7542,5.7593,5.7639,5.7683,5.7715,5.7718,5.7748,5.7733,5.7796,5.7742,5.7827,5.7778,5.7802,5.781,5.7814,5.782,5.776,5.7856,5.8017,5.8034,5.7825,5.7823,5.7821,0,5.7427,5.7514,5.7594,5.7614,5.7655,5.7691,5.7709,5.7738,5.7769,5.7808,5.7827,5.7871,5.7896,5.793,5.7927,5.7887,5.8013,5.7959,5.8016,5.8016,5.8044,5.8042,5.8212,5.8059,5.8059,5.8059,5.8058,0,5.756,5.763,5.7639,5.7688,5.7765,5.7761,5.7837,5.7851,5.7877,5.7926,5.7904,5.795,5.7943,5.7988,5.7986,5.8057,5.8068,5.807,5.8069,5.8073,5.8073,5.8089,5.8081,5.8063,5.8062,5.8061,5.8061,0,5.7684,5.7692,5.7777,5.781,5.7819,5.7875,5.79,5.7945,5.7952,5.8014,5.8028,5.8038,5.809,5.8091,5.8149,5.8147,5.8234,5.8223,5.8225,5.8223,5.828,5.8275,5.8466,5.8491,5.8322,5.8324,5.8325,0,5.7768,5.7822,5.7861,5.7894,5.7915,5.7968,5.8,5.7997,5.803,5.8071,5.811,5.8161,5.8201,5.8285,5.8295,5.834,5.833,5.8394,5.8336,5.8339,5.8331,5.8328,5.8333,5.8405,5.8407,5.8409,5.841,0,5.7917,5.7919,5.7967,5.8018,5.8057,5.8095,5.813,5.8157,5.8158,5.8196,5.8251,5.8282,5.8343,5.8393,5.8436,5.8451,5.8431,5.8428,5.8444,5.8449,5.8447,5.8449,5.8256,5.8424,5.8423,5.8422,5.8421,5.842,5.8024,5.8071,5.8106,5.816,5.8187,5.8221,5.8265,5.8278,5.8325,5.8377,5.8371,5.8431,5.846,5.8516,5.8535,5.858,5.8557,5.858,5.8586,5.8592,5.8598,5.844,5.8588,5.8587,5.8587,5.8587,5.8586,0,5.8172,5.8193,5.8244,5.8295,5.8338,5.8317,5.8355,5.8391,5.8446,5.8476,5.8517,5.8579,5.8627,5.8642,5.8688,5.8721,5.8713,5.8733,5.8731,5.8734,5.8616,5.8598,5.8739,5.8739,5.8739,5.8739,5.8739,5.8739,5.8254,5.8333,5.8339,5.8429,5.8449,5.8511,5.8534,5.8564,5.8589,5.866,5.8701,5.8712,5.8735,5.8782,5.8825,5.8828,5.8845,5.887,5.8869,5.8758,5.8743,5.8728,5.8711,5.8874,5.8874,5.8984,5.8985,5.8985]}]]